GW5592 Weather Reports


Display with metric or nautical units.
time (UTC)temp
F
wind
direction
speed
MPH
gust
MPH
rain 1hr
in
rain 24hr
in
rain mn
in
humidity
%
barometer
mb
20260504231518 51 49 0.0 2.0 0.00 0.00 0.00 66 1016.3
20260504231010 51 49 0.0 2.0 0.00 0.00 0.00 65 1016.3
20260504230507 51 49 0.0 2.0 0.00 0.00 0.00 65 1016.4
20260504230023 51 35 0.0 2.0 0.00 0.00 0.00 65 1016.4
20260504225508 51 28 1.0 2.0 0.00 0.00 0.00 66 1016.3
20260504225009 51 29 0.0 3.0 0.00 0.00 0.00 65 1016.3
20260504224525 51 29 0.0 3.0 0.00 0.00 0.00 64 1016.3
20260504224009 53 18 0.0 0.0 0.00 0.00 0.00 67 1016.3
20260504223510 53 129 0.0 0.0 0.00 0.00 0.00 64 1016.2
20260504223011 53 88 0.0 0.0 0.00 0.00 0.00 63 1016.2
20260504222506 54 88 0.0 0.0 0.00 0.00 0.00 62 1016.3
20260504222014 54 88 0.0 0.0 0.00 0.00 0.00 62 1016.3
20260504221519 54 88 0.0 0.0 0.00 0.00 0.00 61 1016.4
20260504221007 53 88 0.0 0.0 0.00 0.00 0.00 62 1016.4
20260504220509 53 38 0.0 0.0 0.00 0.00 0.00 61 1016.4
20260504220022 53 38 0.0 0.0 0.00 0.00 0.00 62 1016.4
20260504215507 53 38 0.0 0.0 0.00 0.00 0.00 62 1016.3
20260504215013 54 17 0.0 0.0 0.00 0.00 0.00 61 1016.3
20260504214523 54 11 0.0 0.0 0.00 0.00 0.00 60 1016.3
20260504214011 55 92 0.0 0.0 0.00 0.00 0.00 59 1016.3
20260504213510 56 96 0.0 0.0 0.00 0.00 0.00 58 1016.4
20260504213045 56 96 0.0 0.0 0.00 0.00 0.00 59 1016.4
20260504212511 56 105 0.0 0.0 0.00 0.00 0.00 57 1016.4
20260504212007 56 105 0.0 0.0 0.00 0.00 0.00 57 1016.4
20260504211516 57 105 0.0 0.0 0.00 0.00 0.00 55 1016.4
20260504211005 57 105 0.0 0.0 0.00 0.00 0.00 54 1016.4
20260504210508 57 47 0.0 0.0 0.00 0.00 0.00 52 1016.4
20260504210018 57 34 0.0 0.0 0.00 0.00 0.00 52 1016.4
20260504205507 58 34 0.0 0.0 0.00 0.00 0.00 51 1016.4
20260504205006 58 34 0.0 0.0 0.00 0.00 0.00 52 1016.3
20260504204522 58 34 0.0 0.0 0.00 0.00 0.00 53 1016.3
20260504204010 58 94 0.0 0.0 0.00 0.00 0.00 53 1016.2
20260504203513 58 94 0.0 0.0 0.00 0.00 0.00 53 1016.1
20260504203024 58 82 0.0 0.0 0.00 0.00 0.00 53 1016.0
20260504202510 58 93 0.0 0.0 0.00 0.00 0.00 53 1016.0
20260504202010 59 68 0.0 1.0 0.00 0.00 0.00 52 1015.9
20260504201532 59 51 0.0 4.0 0.00 0.00 0.00 51 1015.8
20260504201013 59 327 0.0 4.0 0.00 0.00 0.00 51 1015.7
20260504200507 60 352 0.0 4.0 0.00 0.00 0.00 51 1015.7
20260504200016 60 281 0.0 4.0 0.00 0.00 0.00 52 1015.6
20260504195506 60 9 0.0 4.0 0.00 0.00 0.00 52 1015.5
20260504195006 60 318 0.0 4.0 0.00 0.00 0.00 52 1015.4
20260504194521 60 326 1.0 4.0 0.00 0.00 0.00 51 1015.3
20260504194006 61 339 2.0 4.0 0.00 0.00 0.00 52 1015.3
20260504193509 61 314 1.0 5.0 0.00 0.00 0.00 51 1015.2
20260504193024 61 309 2.0 6.0 0.00 0.00 0.00 50 1015.1
20260504192508 62 337 1.0 6.0 0.00 0.00 0.00 50 1015.1
20260504192009 62 312 0.0 2.0 0.00 0.00 0.00 51 1014.9
20260504191525 62 324 1.0 4.0 0.00 0.00 0.00 49 1014.9
20260504191016 63 342 1.0 6.0 0.00 0.00 0.00 49 1014.9
20260504190510 63 318 2.0 6.0 0.00 0.00 0.00 48 1014.9
20260504190027 63 321 2.0 6.0 0.00 0.00 0.00 47 1014.8
20260504185515 64 294 2.0 8.0 0.00 0.00 0.00 47 1014.7
20260504185007 64 302 3.0 8.0 0.00 0.00 0.00 47 1014.6
20260504184518 64 292 3.0 8.0 0.00 0.00 0.00 45 1014.7
20260504184006 65 327 1.0 8.0 0.00 0.00 0.00 44 1014.7
20260504183508 65 294 4.0 10.0 0.00 0.00 0.00 44 1014.6
20260504183024 65 321 3.0 12.0 0.00 0.00 0.00 45 1014.6
20260504182510 66 317 5.0 12.0 0.00 0.00 0.00 43 1014.5
20260504182011 66 296 6.0 11.0 0.00 0.00 0.00 43 1014.4
20260504181523 66 306 8.0 11.0 0.00 0.00 0.00 42 1014.4
20260504181010 67 327 4.0 9.0 0.00 0.00 0.00 41 1014.3
20260504180507 67 264 5.0 10.0 0.00 0.00 0.00 40 1014.3
20260504180010 67 323 4.0 10.0 0.00 0.00 0.00 40 1014.3
20260504175506 67 284 5.0 10.0 0.00 0.00 0.00 41 1014.2
20260504175009 68 271 4.0 9.0 0.00 0.00 0.00 41 1014.2
20260504174516 68 277 4.0 10.0 0.00 0.00 0.00 40 1014.2
20260504174007 68 241 4.0 10.0 0.00 0.00 0.00 39 1014.2
20260504173510 68 306 3.0 8.0 0.00 0.00 0.00 40 1014.3
20260504173031 68 289 5.0 12.0 0.00 0.00 0.00 40 1014.2
20260504172507 68 270 7.0 13.0 0.00 0.00 0.00 40 1014.3
20260504172011 68 311 8.0 12.0 0.00 0.00 0.00 39 1014.3
20260504171526 68 298 4.0 9.0 0.00 0.00 0.00 40 1014.3
20260504171009 69 284 4.0 12.0 0.00 0.00 0.00 40 1014.3
20260504170515 69 290 6.0 12.0 0.00 0.00 0.00 39 1014.3
20260504151013 69 215 5.0 9.0 0.00 0.00 0.00 40 1014.1
20260504150511 70 300 4.0 14.0 0.00 0.00 0.00 39 1014.1
20260504141011 71 230 6.0 11.0 0.00 0.00 0.00 41 1014.4
20260504140506 71 164 7.0 11.0 0.00 0.00 0.00 37 1014.3
20260504130510 70 243 4.0 9.0 0.00 0.00 0.00 40 1014.9
20260504110507 67 283 7.0 11.0 0.00 0.00 0.00 46 1015.8
20260504100505 64 232 5.0 11.0 0.00 0.00 0.00 59 1015.9
20260504082002 58 150 0.0 5.0 0.00 0.00 0.00 74 1015.9
20260504081505 58 192 1.0 5.0 0.00 0.00 0.00 74 1015.9
20260504081004 58 162 2.0 5.0 0.00 0.00 0.00 75 1015.8
20260504080503 58 255 3.0 5.0 0.00 0.00 0.00 75 1015.8
20260504050503 53 247 0.0 0.0 0.00 0.00 0.00 80 1015.0
20260504050004 53 247 0.0 2.0 0.00 0.00 0.00 81 1015.0
20260504045504 53 247 0.0 2.0 0.00 0.00 0.00 82 1015.0
20260504045007 52 319 0.0 0.0 0.00 0.00 0.00 81 1014.9
20260504044525 52 15 0.0 0.0 0.00 0.00 0.00 81 1014.8
20260504044006 52 128 0.0 0.0 0.00 0.00 0.00 80 1014.8
20260504043504 53 145 0.0 0.0 0.00 0.00 0.00 80 1014.7
20260504043020 53 163 0.0 0.0 0.00 0.00 0.00 81 1014.6
20260504042507 53 153 0.0 0.0 0.00 0.00 0.00 81 1014.7
20260504042009 53 38 0.0 0.0 0.00 0.00 0.00 80 1014.6
20260504041522 53 38 0.0 0.0 0.00 0.00 0.00 80 1014.7
20260504041009 52 38 0.0 0.0 0.00 0.00 0.00 81 1014.7
20260504040510 52 38 0.0 0.0 0.00 0.00 0.00 80 1014.8
20260504040026 52 38 0.0 0.0 0.00 0.00 0.00 80 1014.8
20260504035508 52 38 0.0 0.0 0.00 0.00 0.00 80 1014.8
20260504035004 52 38 0.0 0.0 0.00 0.00 0.00 81 1014.9
20260504034507 52 38 0.0 0.0 0.00 0.00 0.00 81 1014.9
20260504034004 52 38 0.0 0.0 0.00 0.00 0.00 80 1014.8
20260504033508 52 38 0.0 1.0 0.00 0.00 0.00 80 1014.8
20260504033013 52 38 0.0 1.0 0.00 0.00 0.00 79 1014.8
20260504032504 53 56 0.0 0.0 0.00 0.00 0.00 78 1014.8
20260504032009 54 168 0.0 0.0 0.00 0.00 0.00 78 1014.9
20260504031520 54 168 0.0 1.0 0.00 0.00 0.00 78 1015.0
20260504031008 54 168 0.0 2.0 0.00 0.00 0.00 79 1014.9
20260504030506 53 167 0.0 1.0 0.00 0.00 0.00 79 1015.0
20260504030023 53 155 0.0 0.0 0.00 0.00 0.00 78 1015.0
20260504025507 54 155 0.0 0.0 0.00 0.00 0.00 78 1015.1
20260504025006 54 144 0.0 0.0 0.00 0.00 0.00 78 1015.0
20260504024524 54 143 0.0 0.0 0.00 0.00 0.00 78 1015.1
20260504024007 53 143 0.0 1.0 0.00 0.00 0.00 78 1015.0
20260504023503 53 143 0.0 1.0 0.00 0.00 0.00 78 1015.1
20260504023008 54 161 0.0 0.0 0.00 0.00 0.00 77 1015.2
20260504022504 54 161 0.0 0.0 0.00 0.00 0.00 77 1015.1
20260504022007 55 167 0.0 0.0 0.00 0.00 0.00 76 1015.1
20260504021513 55 171 0.0 0.0 0.00 0.00 0.00 76 1015.2
20260504021005 55 171 0.0 0.0 0.00 0.00 0.00 76 1015.2
20260504020508 55 171 0.0 0.0 0.00 0.00 0.00 76 1015.1
20260504020021 55 171 0.0 0.0 0.00 0.00 0.00 75 1015.2
20260504015508 56 171 0.0 1.0 0.00 0.00 0.00 75 1015.2
20260504015008 56 171 0.0 2.0 0.00 0.00 0.00 75 1015.2
20260504014524 56 171 0.0 3.0 0.00 0.00 0.00 75 1015.2
20260504014006 55 167 0.0 3.0 0.00 0.00 0.00 75 1015.2
20260504013508 56 167 0.0 2.0 0.00 0.00 0.00 75 1015.3
20260504013034 56 172 0.0 2.0 0.00 0.00 0.00 74 1015.3
20260504012504 56 172 0.0 2.0 0.00 0.00 0.00 74 1015.2
20260504012007 56 186 1.0 2.0 0.00 0.00 0.00 74 1015.3
20260504011509 56 148 0.0 0.0 0.00 0.00 0.00 74 1015.4
20260504011008 56 148 0.0 0.0 0.00 0.00 0.00 73 1015.5
20260504010505 56 148 0.0 2.0 0.00 0.00 0.00 73 1015.6
20260504010016 56 148 0.0 2.0 0.00 0.00 0.00 73 1015.6
20260504005505 57 161 0.0 1.0 0.00 0.00 0.00 73 1015.6
20260504005010 57 190 0.0 1.0 0.00 0.00 0.00 73 1015.6
20260504004522 57 202 0.0 1.0 0.00 0.00 0.00 73 1015.7
20260504004010 57 191 0.0 2.0 0.00 0.00 0.00 73 1015.7
20260504003509 57 205 0.0 2.0 0.00 0.00 0.00 73 1015.7
20260504003025 57 161 0.0 2.0 0.00 0.00 0.00 72 1015.7
20260504002509 57 157 0.0 2.0 0.00 0.00 0.00 72 1015.8
20260504002009 57 96 0.0 2.0 0.00 0.00 0.00 71 1015.9
20260504001510 57 186 0.0 2.0 0.00 0.00 0.00 72 1016.0
20260504001005 58 186 0.0 2.0 0.00 0.00 0.00 71 1016.0
20260504000506 58 184 0.0 2.0 0.00 0.00 0.00 71 1016.0
20260504000015 58 163 0.0 2.0 0.00 0.00 0.00 71 1016.0
20260503235506 58 163 0.0 2.0 0.00 0.00 0.00 70 1016.0
20260503235007 58 191 0.0 2.0 0.00 0.00 0.00 68 1016.0
20260503234520 59 188 0.0 2.0 0.00 0.00 0.00 68 1016.0
20260503234013 59 188 0.0 1.0 0.00 0.00 0.00 67 1016.0
20260503233510 59 188 0.0 1.0 0.00 0.00 0.00 68 1016.1
20260503233026 59 220 0.0 1.0 0.00 0.00 0.00 67 1016.2
20260503232508 58 249 0.0 2.0 0.00 0.00 0.00 68 1016.2
20260503232016 58 249 0.0 2.0 0.00 0.00 0.00 67 1016.1